TimeEDT,TemperatureF,Dew PointF,Humidity,Sea Level PressureIn,VisibilityMPH,Wind Direction,Wind SpeedMPH,Gust SpeedMPH,PrecipitationIn,Events,Conditions,WindDirDegrees,DateUTC
12:15 AM,57.2,53.6,88,30.30,10.0,Calm,Calm,-,N/A,,Clear,0,2012-10-14 04:15:00
12:35 AM,55.4,53.6,94,30.29,7.0,Calm,Calm,-,N/A,,Clear,0,2012-10-14 04:35:00
1:15 AM,57.2,51.8,82,30.29,10.0,Calm,Calm,-,N/A,,Clear,0,2012-10-14 05:15:00
1:35 AM,55.4,51.8,88,30.28,10.0,Calm,Calm,-,N/A,,Clear,0,2012-10-14 05:35:00
1:55 AM,55.4,51.8,88,30.27,10.0,Calm,Calm,-,N/A,,Clear,0,2012-10-14 05:55:00
2:15 AM,55.4,51.8,88,30.26,10.0,Calm,Calm,-,N/A,,Clear,0,2012-10-14 06:15:00
2:35 AM,55.4,51.8,88,30.25,10.0,Calm,Calm,-,N/A,,Clear,0,2012-10-14 06:35:00
2:55 AM,55.4,53.6,94,30.25,10.0,Calm,Calm,-,N/A,,Clear,0,2012-10-14 06:55:00
3:35 AM,57.2,53.6,88,30.24,10.0,Calm,Calm,-,N/A,,Clear,0,2012-10-14 07:35:00
3:55 AM,55.4,53.6,94,30.24,7.0,Calm,Calm,-,N/A,,Clear,0,2012-10-14 07:55:00
4:15 AM,55.4,53.6,94,30.23,10.0,Calm,Calm,-,N/A,,Clear,0,2012-10-14 08:15:00
4:35 AM,57.2,53.6,88,30.22,7.0,Calm,Calm,-,N/A,,Clear,0,2012-10-14 08:35:00
4:55 AM,57.2,53.6,88,30.22,10.0,Calm,Calm,-,N/A,,Clear,0,2012-10-14 08:55:00
5:15 AM,57.2,53.6,88,30.22,10.0,Calm,Calm,-,N/A,,Clear,0,2012-10-14 09:15:00
5:35 AM,57.2,53.6,88,30.22,10.0,Calm,Calm,-,N/A,,Clear,0,2012-10-14 09:35:00
5:55 AM,57.2,53.6,88,30.22,7.0,NE,3.5,-,N/A,,Clear,40,2012-10-14 09:55:00
6:15 AM,57.2,55.4,94,30.22,10.0,Calm,Calm,-,N/A,,Clear,0,2012-10-14 10:15:00
6:35 AM,59.0,55.4,88,30.23,10.0,NNE,3.5,-,N/A,,Clear,20,2012-10-14 10:35:00
6:55 AM,57.2,53.6,88,30.23,7.0,NE,3.5,-,N/A,,Clear,50,2012-10-14 10:55:00
7:15 AM,57.2,53.6,88,30.22,7.0,Calm,Calm,-,N/A,,Clear,0,2012-10-14 11:15:00
7:35 AM,57.2,53.6,88,30.22,7.0,Calm,Calm,-,N/A,,Clear,0,2012-10-14 11:35:00
7:55 AM,57.2,53.6,88,30.23,5.0,Calm,Calm,-,N/A,,Clear,0,2012-10-14 11:55:00
8:15 AM,57.2,55.4,94,30.23,7.0,NNE,3.5,-,N/A,,Clear,30,2012-10-14 12:15:00
8:35 AM,59.0,55.4,88,30.24,7.0,Calm,Calm,-,N/A,,Clear,0,2012-10-14 12:35:00
8:55 AM,62.6,57.2,82,30.25,10.0,Calm,Calm,-,N/A,,Clear,0,2012-10-14 12:55:00
9:15 AM,64.4,59.0,83,30.25,7.0,Calm,Calm,-,N/A,,Clear,0,2012-10-14 13:15:00
9:35 AM,66.2,59.0,78,30.25,10.0,Calm,Calm,-,N/A,,Clear,0,2012-10-14 13:35:00
9:55 AM,68.0,60.8,78,30.25,7.0,Calm,Calm,-,N/A,,Clear,0,2012-10-14 13:55:00
10:15 AM,71.6,60.8,69,30.24,10.0,NE,3.5,-,N/A,,Clear,40,2012-10-14 14:15:00
10:35 AM,73.4,60.8,65,30.24,10.0,Calm,Calm,-,N/A,,Clear,0,2012-10-14 14:35:00
10:55 AM,75.2,62.6,65,30.23,7.0,ESE,3.5,-,N/A,,Clear,120,2012-10-14 14:55:00
11:15 AM,77.0,60.8,57,30.23,7.0,ESE,5.8,-,N/A,,Clear,110,2012-10-14 15:15:00
11:35 AM,78.8,62.6,57,30.22,7.0,SE,6.9,-,N/A,,Clear,140,2012-10-14 15:35:00
11:55 AM,78.8,60.8,54,30.22,7.0,SSE,8.1,-,N/A,,Clear,150,2012-10-14 15:55:00
12:15 PM,80.6,60.8,51,30.21,10.0,ESE,3.5,-,N/A,,Clear,110,2012-10-14 16:15:00
12:35 PM,80.6,60.8,51,30.21,10.0,SE,3.5,-,N/A,,Clear,130,2012-10-14 16:35:00
12:55 PM,82.4,59.0,45,30.19,10.0,ENE,3.5,-,N/A,,Clear,60,2012-10-14 16:55:00
1:15 PM,82.4,57.2,42,30.19,10.0,SSW,4.6,-,N/A,,Clear,210,2012-10-14 17:15:00
1:35 PM,82.4,59.0,45,30.18,10.0,South,5.8,-,N/A,,Clear,170,2012-10-14 17:35:00
1:55 PM,80.6,59.0,48,30.17,10.0,SE,3.5,-,N/A,,Clear,140,2012-10-14 17:55:00
2:15 PM,80.6,59.0,48,30.16,7.0,SE,4.6,-,N/A,,Clear,140,2012-10-14 18:15:00
2:35 PM,80.6,59.0,48,30.15,10.0,East,3.5,-,N/A,,Clear,90,2012-10-14 18:35:00
2:55 PM,84.2,59.0,42,30.14,10.0,NNE,3.5,-,N/A,,Clear,20,2012-10-14 18:55:00
3:15 PM,82.4,60.8,48,30.14,10.0,NNE,4.6,-,N/A,,Clear,30,2012-10-14 19:15:00
3:35 PM,82.4,59.0,45,30.13,10.0,NE,4.6,-,N/A,,Clear,50,2012-10-14 19:35:00
4:15 PM,82.4,60.8,48,30.12,10.0,East,3.5,-,N/A,,Clear,80,2012-10-14 20:15:00
4:35 PM,82.4,60.8,48,30.12,10.0,SE,4.6,-,N/A,,Clear,140,2012-10-14 20:35:00
4:55 PM,78.8,60.8,54,30.11,7.0,Calm,Calm,-,N/A,,Clear,0,2012-10-14 20:55:00
5:15 PM,78.8,60.8,54,30.11,10.0,SE,3.5,-,N/A,,Clear,140,2012-10-14 21:15:00
5:35 PM,78.8,60.8,54,30.11,7.0,Calm,Calm,-,N/A,,Clear,0,2012-10-14 21:35:00
5:55 PM,77.0,60.8,57,30.11,5.0,Calm,Calm,-,N/A,,Haze,0,2012-10-14 21:55:00
6:15 PM,77.0,62.6,61,30.11,10.0,Calm,Calm,-,N/A,,Clear,0,2012-10-14 22:15:00
6:35 PM,75.2,60.8,61,30.10,10.0,ESE,4.6,-,N/A,,Clear,120,2012-10-14 22:35:00
6:55 PM,73.4,59.0,61,30.10,10.0,Calm,Calm,-,N/A,,Clear,0,2012-10-14 22:55:00
7:15 PM,71.6,59.0,64,30.10,10.0,SE,3.5,-,N/A,,Clear,140,2012-10-14 23:15:00
7:35 PM,71.6,59.0,64,30.10,10.0,Calm,Calm,-,N/A,,Clear,0,2012-10-14 23:35:00
7:55 PM,69.8,59.0,68,30.10,10.0,Calm,Calm,-,N/A,,Clear,0,2012-10-14 23:55:00
8:15 PM,69.8,60.8,73,30.10,10.0,Calm,Calm,-,N/A,,Clear,0,2012-10-15 00:15:00
8:35 PM,66.2,60.8,83,30.10,10.0,Calm,Calm,-,N/A,,Clear,0,2012-10-15 00:35:00
8:55 PM,66.2,60.8,83,30.11,10.0,Calm,Calm,-,N/A,,Clear,0,2012-10-15 00:55:00
9:15 PM,64.4,60.8,88,30.10,7.0,Calm,Calm,-,N/A,,Clear,0,2012-10-15 01:15:00
9:35 PM,64.4,60.8,88,30.10,10.0,Calm,Calm,-,N/A,,Clear,0,2012-10-15 01:35:00
9:55 PM,64.4,60.8,88,30.10,10.0,Calm,Calm,-,N/A,,Clear,0,2012-10-15 01:55:00
10:15 PM,62.6,59.0,88,30.09,10.0,Calm,Calm,-,N/A,,Clear,0,2012-10-15 02:15:00
10:35 PM,62.6,60.8,94,30.09,10.0,Calm,Calm,-,N/A,,Clear,0,2012-10-15 02:35:00
10:55 PM,62.6,59.0,88,30.08,10.0,Calm,Calm,-,N/A,,Clear,0,2012-10-15 02:55:00
11:15 PM,62.6,59.0,88,30.08,10.0,Calm,Calm,-,N/A,,Clear,0,2012-10-15 03:15:00
11:35 PM,62.6,59.0,88,30.08,10.0,Calm,Calm,-,N/A,,Clear,0,2012-10-15 03:35:00
11:55 PM,60.8,59.0,94,30.06,10.0,Calm,Calm,-,N/A,,Clear,0,2012-10-15 03:55:00